TimeCST,TemperatureF,Dew PointF,Humidity,Sea Level PressureIn,VisibilityMPH,Wind Direction,Wind SpeedMPH,Gust SpeedMPH,PrecipitationIn,Events,Conditions,WindDirDegrees,DateUTC
12:54 AM,10.9,6.1,81,30.30,10.0,NNW,9.2,-,N/A,,Partly Cloudy,330,2013-12-31 06:54:00
1:54 AM,7.0,3.0,84,30.29,10.0,NW,6.9,-,N/A,,Clear,310,2013-12-31 07:54:00
2:54 AM,7.0,1.9,80,30.30,10.0,WNW,4.6,-,N/A,,Clear,300,2013-12-31 08:54:00
3:54 AM,5.0,-0.0,80,30.30,10.0,West,9.2,-,N/A,,Scattered Clouds,260,2013-12-31 09:54:00
4:54 AM,8.1,1.9,76,30.33,10.0,NNW,6.9,-,N/A,,Overcast,330,2013-12-31 10:54:00
5:54 AM,8.1,1.9,76,30.35,10.0,NW,5.8,-,N/A,,Overcast,320,2013-12-31 11:54:00
6:54 AM,9.0,1.9,73,30.34,10.0,Calm,Calm,-,N/A,,Overcast,0,2013-12-31 12:54:00
7:54 AM,9.0,3.0,77,30.34,10.0,South,3.5,-,N/A,,Overcast,180,2013-12-31 13:54:00
8:54 AM,10.9,3.0,70,30.34,10.0,East,3.5,-,N/A,,Overcast,90,2013-12-31 14:54:00
9:54 AM,12.0,3.9,70,30.33,10.0,SE,4.6,-,N/A,,Overcast,130,2013-12-31 15:54:00
10:54 AM,12.9,5.0,71,30.31,10.0,East,9.2,-,N/A,,Overcast,90,2013-12-31 16:54:00
11:54 AM,14.0,6.1,71,30.26,10.0,East,8.1,-,N/A,,Overcast,90,2013-12-31 17:54:00
12:54 PM,15.1,6.1,68,30.23,10.0,ESE,12.7,-,N/A,,Overcast,110,2013-12-31 18:54:00
1:54 PM,15.1,6.1,68,30.21,10.0,East,11.5,-,N/A,,Mostly Cloudy,80,2013-12-31 19:54:00
2:54 PM,15.1,6.1,68,30.21,8.0,ENE,16.1,-,0.00,Snow,Light Snow,60,2013-12-31 20:54:00
3:41 PM,15.1,5.0,64,30.16,10.0,ENE,15.0,-,0.00,,Overcast,60,2013-12-31 21:41:00
3:54 PM,14.0,5.0,67,30.23,10.0,ENE,12.7,-,0.00,,Overcast,60,2013-12-31 21:54:00
4:17 PM,12.9,5.0,71,30.19,10.0,ENE,12.7,-,N/A,,Mostly Cloudy,70,2013-12-31 22:17:00
4:54 PM,12.9,3.9,67,30.25,10.0,ENE,16.1,-,N/A,,Mostly Cloudy,60,2013-12-31 22:54:00
5:54 PM,10.9,3.0,70,30.27,10.0,ENE,13.8,-,N/A,,Overcast,70,2013-12-31 23:54:00
6:54 PM,10.9,3.9,73,30.27,10.0,ENE,10.4,-,N/A,,Overcast,70,2014-01-01 00:54:00
7:54 PM,10.9,3.9,73,30.28,10.0,NE,11.5,-,N/A,,Overcast,50,2014-01-01 01:54:00
8:54 PM,10.9,3.9,73,30.28,10.0,NE,8.1,-,N/A,,Mostly Cloudy,50,2014-01-01 02:54:00
9:54 PM,10.9,3.9,73,30.28,10.0,NE,9.2,-,N/A,,Overcast,40,2014-01-01 03:54:00
10:54 PM,10.0,3.0,73,30.26,10.0,ENE,9.2,-,N/A,,Mostly Cloudy,70,2014-01-01 04:54:00
11:54 PM,10.0,3.0,73,30.26,10.0,ENE,10.4,-,N/A,,Scattered Clouds,60,2014-01-01 05:54:00